Wind_Speed
10 10 11 11 11 10 10 10 10 10 11 13 14 12 12 14 14 14 15 15 16 17 17 17 19 20 21 22 23 23 23 24 25 25 25 25 26 25 25 26 27 27 28 28 28 30 31 32 33 33 33 34 34 34 34 35 35 35 35 35 35 35 35 34 34 34 32 31 31 30 29 29 28 28 28 27 26 26 26 26 26 26 25 25 25
13 14 13 12 11 11 11 11 10 10 12 14 13 12 13 14 14 14 15 16 16 17 17 18 20 21 22 23 24 24 23 23 24 25 26 26 27 27 27 28 28 28 29 29 29 31 32 33 33 33 33 34 34 34 35 35 35 35 36 36 36 36 36 35 35 34 33 33 32 31 31 30 30 29 29 29 29 28 28 28 28 29 28 27 27
15 15 13 12 11 11 11 10 10 12 14 13 12 12 13 14 14 15 16 16 16 17 18 19 20 21 22 23 24 24 24 24 24 25 26 27 27 27 27 29 29 29 29 29 30 31 32 33 33 33 34 34 34 34 35 35 35 36 36 36 36 36 35 35 35 34 33 33 32 32 32 32 32 32 31 31 30 30 30 30 30 31 31 30 29
14 13 12 11 11 11 11 11 12 13 14 13 12 13 14 14 15 16 17 16 17 18 19 20 21 22 23 24 25 25 25 25 25 25 26 27 27 27 28 29 30 30 30 30 30 32 33 33 33 33 34 34 34 35 35 35 35 35 35 35 35 34 34 34 34 34 34 33 33 33 33 32 32 32 33 33 32 30 30 30 31 31 32 32 32
14 12 11 11 11 11 11 12 12 14 14 13 13 13 13 14 16 17 17 17 18 19 20 21 23 24 25 25 26 26 26 26 25 25 26 27 27 27 28 29 30 30 30 30 31 32 33 33 33 33 34 34 34 34 34 34 34 34 34 34 34 33 33 34 34 34 34 35 35 35 35 34 34 33 33 33 33 33 32 31 30 31 32 33 33
14 13 12 11 11 11 11 12 13 13 13 13 13 13 13 15 17 17 18 18 19 20 22 23 25 26 26 26 26 27 26 26 25 25 26 26 27 27 28 29 30 30 30 30 31 32 32 32 32 33 33 34 33 33 33 33 33 33 33 33 34 34 34 35 35 36 36 37 37 37 36 36 35 34 32 31 30 31 32 32 30 30 31 32 33
13 13 12 12 11 11 12 12 13 13 13 13 13 13 14 16 18 18 19 20 21 23 24 26 27 27 27 27 27 27 26 26 26 26 26 26 27 27 28 29 29 30 30 30 31 31 31 32 32 33 33 33 32 32 33 33 33 33 34 34 35 35 36 36 37 37 37 38 38 37 37 36 35 34 33 31 29 28 28 29 29 29 30 31 32
13 13 12 12 11 11 12 13 13 14 14 13 14 14 16 18 19 19 20 22 23 25 26 27 28 28 27 27 27 27 26 27 27 27 27 27 27 27 27 28 28 29 29 30 30 30 31 31 32 32 32 32 32 32 32 33 33 33 34 35 35 36 36 37 37 37 37 37 37 36 36 35 34 33 32 32 31 30 29 28 28 28 28 29 31
14 13 12 11 11 12 12 13 13 13 14 14 15 16 18 19 20 21 22 24 25 26 27 28 28 28 28 28 28 27 27 28 28 27 26 27 27 26 26 27 28 28 28 29 29 29 30 31 32 32 32 31 31 31 32 32 33 34 34 35 36 36 37 37 37 37 37 36 36 36 35 33 32 31 30 29 28 28 29 28 28 27 27 27 28
14 12 11 11 11 11 12 13 13 14 15 16 18 19 20 20 21 22 23 25 26 26 27 28 28 28 29 29 29 28 28 28 28 27 26 27 26 25 25 26 27 28 27 28 28 29 30 31 31 31 30 30 30 31 31 32 33 34 35 36 37 37 38 37 37 37 36 36 35 34 34 32 31 30 28 27 27 26 27 27 28 28 27 27 27
14 12 11 10 10 11 13 14 14 15 16 18 19 20 20 20 21 22 23 25 26 26 27 27 27 28 29 30 29 29 29 28 28 27 26 26 26 24 24 26 27 27 26 27 27 28 29 30 31 30 29 29 30 30 31 32 33 35 36 37 38 38 38 38 38 38 37 37 36 34 33 32 31 30 28 27 26 26 25 25 26 26 27 27 27
14 12 11 11 12 13 15 15 16 17 19 20 21 20 20 21 21 22 23 25 25 26 26 27 28 29 29 29 29 28 28 28 27 26 26 25 24 23 24 26 26 26 25 26 27 28 29 30 30 29 28 29 30 31 32 33 34 36 37 38 39 39 39 39 39 39 38 37 36 34 33 31 30 29 28 27 26 26 25 24 24 24 25 25 26
15 13 13 13 15 16 16 17 18 19 20 21 22 22 22 22 21 22 23 25 25 26 27 28 28 29 29 29 28 28 28 27 27 26 25 23 22 23 25 26 25 25 25 25 26 28 29 29 29 28 28 29 30 31 32 34 35 37 38 39 40 40 40 40 39 39 39 38 36 33 31 30 28 28 27 26 26 25 25 24 24 23 23 23 24
17 15 15 16 16 16 17 17 18 19 19 19 19 21 21 21 21 22 24 24 25 26 28 28 29 28 28 28 28 28 28 27 26 25 24 22 22 23 25 25 25 24 24 25 26 27 28 28 27 27 27 29 30 31 33 35 37 38 39 40 40 39 40 40 40 39 38 36 34 32 30 29 28 27 26 25 24 23 22 22 22 21 21 20 20
19 18 18 17 16 15 15 15 16 16 17 17 17 18 19 20 21 22 24 24 26 27 28 28 29 28 28 27 27 28 27 26 25 24 22 22 22 24 25 25 24 23 24 25 26 27 28 27 26 26 27 29 30 32 34 36 38 39 40 40 40 39 39 40 40 39 37 34 33 31 29 29 28 26 25 24 24 23 22 22 21 22 22 22 21
21 20 19 18 16 14 13 13 13 13 14 15 16 17 18 19 21 23 24 25 26 28 28 29 29 28 27 27 27 27 26 25 24 23 22 21 23 24 25 24 23 23 23 25 26 27 27 26 26 26 27 29 30 32 34 37 39 40 41 40 40 39 39 40 40 38 35 32 31 29 28 28 27 25 24 24 23 23 23 24 24 25 25 25 25
23 22 20 19 17 15 14 14 13 12 13 15 16 17 18 20 22 23 24 26 27 28 29 30 30 29 27 27 27 27 25 24 24 22 21 21 23 24 24 24 23 22 23 25 26 26 26 26 25 26 27 29 31 33 35 37 39 41 41 40 40 40 40 40 38 36 33 31 29 28 28 27 25 24 23 22 22 23 24 24 25 25 25 25 24
24 23 21 20 18 16 16 15 14 13 14 15 16 18 19 21 23 24 26 27 28 29 30 31 30 29 28 27 27 26 24 23 23 22 21 21 23 24 24 24 23 23 24 25 25 25 25 25 25 26 28 29 31 33 35 38 40 41 41 41 41 41 41 39 36 33 31 30 28 27 26 25 24 23 22 22 22 23 24 24 24 24 24 24 24
26 25 22 21 20 19 18 17 16 16 17 18 18 19 20 22 24 26 27 28 29 30 31 31 30 29 28 27 27 25 23 23 23 21 21 21 23 24 25 24 23 23 24 25 25 25 25 25 25 27 28 30 31 33 36 38 40 41 41 41 41 41 39 37 33 31 30 29 28 26 24 23 22 22 22 22 23 24 24 25 25 25 25 24 24
26 25 24 23 22 21 19 18 18 19 20 20 20 21 22 24 25 27 29 29 30 31 31 31 30 29 28 28 26 24 23 23 22 21 21 22 23 25 25 24 23 23 24 25 25 25 25 25 26 27 29 30 32 34 36 38 40 40 41 41 41 39 37 34 31 29 29 28 26 25 24 22 21 21 22 23 24 24 25 25 25 25 26 25 24
25 24 24 24 22 21 20 20 21 22 22 21 21 22 24 25 27 28 30 31 31 31 31 31 31 29 29 28 25 23 22 22 22 21 21 22 24 26 25 24 23 23 24 25 25 25 25 25 26 28 29 30 32 33 36 38 39 40 40 40 39 36 34 32 30 29 28 26 25 24 23 22 21 22 22 23 24 24 24 24 25 25 26 25 25
24 24 25 23 22 21 22 22 23 23 23 22 23 24 25 26 28 29 31 31 32 32 32 31 31 29 28 25 22 21 21 22 21 21 22 23 25 26 25 23 22 23 24 25 25 26 25 25 26 28 29 30 32 33 35 37 38 39 39 38 36 34 31 30 29 28 27 25 24 23 23 23 22 22 22 22 23 23 23 23 24 25 25 24 24
26 26 25 24 23 24 25 25 25 24 23 23 24 25 26 28 29 31 32 32 32 32 32 31 30 28 25 22 19 19 21 22 22 22 23 24 26 26 24 22 22 23 25 25 25 25 25 26 27 28 29 30 31 33 34 36 38 38 37 36 33 31 29 28 28 27 26 24 23 23 23 23 23 23 23 22 21 21 21 22 24 25 25 24 24
28 27 26 25 25 26 27 26 25 25 24 24 25 27 28 29 31 32 33 33 32 33 32 32 30 28 25 22 19 19 21 23 23 23 23 25 26 25 23 22 23 24 25 25 25 25 25 26 27 27 28 29 31 32 33 35 36 36 35 33 30 28 28 27 27 26 25 24 23 23 23 23 23 23 23 22 22 21 21 22 24 25 25 25 25
28 27 26 26 27 27 27 26 26 25 25 26 27 28 30 31 32 33 33 33 33 33 33 32 30 28 27 25 22 21 22 23 23 23 24 26 26 24 22 22 23 24 25 25 25 25 25 26 26 27 28 29 30 31 33 34 35 34 32 29 28 27 26 26 25 24 24 23 23 22 22 22 22 22 22 22 22 22 22 23 24 25 26 26 26
29 28 27 26 27 27 27 27 26 26 26 27 29 30 32 33 33 33 34 34 34 33 33 31 30 29 27 25 23 22 22 23 23 23 24 26 25 23 22 23 24 24 25 25 25 25 26 26 26 26 27 28 29 30 32 33 33 31 29 26 25 25 25 25 24 23 23 23 22 22 22 22 22 22 22 22 22 22 23 24 25 26 26 26 26
25 26 26 25 27 28 28 27 27 27 28 29 31 32 34 34 34 34 34 34 34 33 32 30 28 26 24 23 23 22 22 22 22 23 25 25 23 22 22 23 24 25 25 25 26 26 26 25 25 26 27 28 29 29 30 31 31 28 26 24 24 24 24 23 23 22 22 22 22 22 22 22 22 22 22 22 22 22 22 23 24 26 26 26 25
24 24 25 26 27 28 28 28 28 28 29 31 32 34 35 35 35 35 34 33 33 32 30 28 25 23 23 23 22 21 21 22 22 23 24 24 22 22 23 24 24 25 26 26 26 26 25 25 25 25 26 27 28 28 29 29 28 26 23 22 22 23 22 22 22 21 22 22 22 22 22 22 22 22 22 22 22 21 21 21 22 24 25 25 25
29 28 28 28 27 27 27 28 29 30 31 33 34 36 36 35 36 35 34 32 32 31 30 27 24 23 23 22 20 19 21 21 22 23 23 22 22 22 23 24 25 26 26 26 26 26 25 24 24 25 26 26 27 27 27 27 26 23 21 21 21 21 21 21 21 21 21 21 22 22 22 22 22 22 22 22 22 21 21 21 21 22 24 25 24
32 30 29 29 28 28 28 29 30 32 33 35 36 36 36 36 36 35 33 32 31 30 29 27 25 24 23 20 18 20 22 21 21 22 22 22 22 23 23 25 26 26 26 26 26 25 24 24 24 24 25 26 25 25 25 25 24 21 20 20 20 20 20 20 20 20 21 21 21 21 21 22 22 22 23 22 22 22 21 20 20 22 23 24 24
33 31 30 30 30 30 30 32 33 34 35 36 36 36 36 36 35 34 33 31 30 29 29 27 25 24 21 18 19 22 22 21 21 22 22 22 22 23 24 26 26 26 26 26 25 24 24 23 23 24 25 25 24 24 24 24 22 20 19 19 19 19 19 19 19 20 20 20 20 20 21 21 22 22 23 23 22 22 21 20 20 21 22 23 24
34 32 31 31 31 32 32 34 35 36 36 36 36 36 35 35 34 32 31 29 28 28 28 26 23 20 18 19 21 22 21 21 22 22 22 23 23 24 26 26 26 26 26 26 25 24 23 23 23 24 24 24 23 23 23 22 21 19 19 18 18 18 18 18 18 19 19 19 19 20 20 21 21 22 22 23 23 23 22 21 21 21 21 22 23
34 34 33 32 32 33 34 35 36 36 36 36 36 35 34 33 32 30 29 27 26 25 25 24 21 19 19 21 23 22 21 21 22 22 23 24 24 25 26 26 26 26 26 25 25 24 23 22 23 24 24 23 22 22 22 21 20 19 18 18 18 17 17 18 18 18 18 19 19 19 20 20 21 22 22 23 23 23 23 22 21 21 21 22 22
32 33 34 34 34 35 35 36 36 37 36 36 35 34 33 32 30 29 28 26 26 24 23 22 21 20 21 23 24 22 21 22 22 23 24 25 25 26 27 26 26 26 25 25 25 24 23 23 23 24 24 23 22 21 21 21 20 19 18 17 17 17 17 17 17 17 18 18 19 19 20 20 21 21 22 22 23 23 23 23 23 22 22 22 22
33 31 32 34 35 36 37 37 37 37 37 37 35 34 32 31 29 28 27 26 25 23 22 21 21 22 23 24 23 21 21 22 23 24 25 26 26 27 27 26 26 26 26 25 25 24 23 23 23 24 23 22 21 21 21 20 20 19 18 17 17 17 16 16 17 17 17 18 18 19 20 20 21 21 21 22 22 23 23 23 23 23 23 23 23
33 30 30 32 34 36 37 38 38 38 38 37 35 33 32 30 28 27 26 25 24 23 22 22 22 23 24 23 22 21 22 23 25 26 26 27 27 27 27 27 26 26 26 26 25 24 23 23 24 24 23 22 21 21 20 20 20 19 18 17 17 16 16 16 16 17 17 18 19 19 20 20 21 21 22 22 22 22 22 23 23 23 23 23 23
32 30 31 32 34 35 37 37 38 38 37 35 34 32 31 29 27 26 25 24 24 23 23 23 23 24 24 23 22 22 23 25 26 27 27 27 27 27 27 27 27 27 27 26 25 25 24 24 24 24 23 22 21 20 20 21 21 20 19 18 17 17 17 17 17 17 18 18 19 20 21 21 21 22 22 22 22 22 23 23 23 23 23 23 23
34 33 32 33 34 35 36 36 36 36 35 34 33 32 30 27 26 26 25 24 24 24 24 24 24 24 24 24 23 24 25 27 27 28 28 28 28 28 28 28 28 27 27 27 26 25 24 25 25 24 24 22 21 20 21 21 21 21 20 19 18 18 18 17 17 18 18 19 20 20 21 21 22 22 23 23 23 23 23 24 24 24 24 24 24
35 35 35 35 35 36 36 36 36 34 33 33 33 31 29 26 26 26 26 25 25 25 25 25 25 25 25 24 24 26 27 28 28 28 28 28 28 28 28 28 28 28 28 28 27 26 25 25 26 25 24 23 22 21 21 21 22 22 21 21 20 19 19 19 19 19 19 20 20 21 21 22 22 22 23 23 24 24 25 25 25 25 25 25 25
36 36 36 36 37 37 37 37 36 35 34 34 33 30 28 27 27 27 27 27 27 26 26 26 26 26 25 25 26 27 28 29 29 29 29 29 29 29 29 29 29 29 29 28 28 27 27 26 27 26 25 24 23 22 22 22 23 23 23 22 22 21 21 20 20 20 20 21 21 22 22 22 22 23 23 23 24 25 26 26 27 27 27 27 27
37 37 37 37 37 37 36 36 36 36 35 34 33 30 28 27 28 28 28 28 28 28 28 28 27 26 26 26 27 28 29 30 30 30 30 30 30 30 30 30 30 30 29 29 29 28 28 28 28 27 26 25 24 23 23 23 24 24 24 24 24 23 23 22 22 22 21 22 22 23 23 23 24 24 24 24 25 26 27 27 28 28 29 29 29
38 39 40 40 38 36 36 36 36 36 36 34 32 30 28 28 29 29 29 29 29 30 30 29 28 27 27 28 29 29 30 30 30 31 31 31 31 31 30 31 31 30 30 30 30 29 29 29 29 28 28 27 26 25 24 25 25 25 26 26 26 25 25 25 24 24 24 23 24 24 25 25 26 26 26 27 27 27 28 29 29 30 30 30 31
39 39 40 40 39 37 36 36 36 36 35 34 33 31 29 29 30 31 31 31 31 31 31 31 30 29 28 29 30 30 31 31 31 32 32 31 31 31 31 32 31 31 31 31 30 30 30 30 30 30 29 28 27 27 26 26 26 27 27 27 28 28 28 27 27 27 26 26 26 26 27 28 28 28 29 29 29 30 30 31 31 32 32 32 32
39 41 43 44 44 41 37 36 36 36 35 34 33 31 30 29 30 32 33 33 33 33 33 33 31 30 30 31 32 32 32 32 33 33 32 32 32 32 32 33 32 32 32 31 31 31 31 31 31 31 31 30 29 29 28 28 28 29 29 30 30 30 30 30 30 29 29 29 29 28 29 30 30 31 31 31 32 32 32 32 33 33 34 34 35
40 42 44 46 47 44 38 36 37 37 36 34 33 31 30 30 32 33 33 34 34 35 35 34 33 33 33 34 35 35 35 34 34 33 33 33 33 33 34 34 33 33 33 33 32 32 32 32 32 32 32 32 31 31 31 31 30 31 31 32 32 32 32 32 32 32 32 32 32 32 32 32 33 33 33 34 34 35 35 35 35 35 35 36 36
36 35 35 37 40 41 38 36 37 37 36 34 33 31 31 32 33 34 34 35 35 36 36 35 35 34 35 37 39 39 36 35 34 34 34 34 34 35 35 35 34 34 34 34 34 33 33 33 33 34 34 33 33 33 33 33 33 34 34 34 34 35 35 35 35 34 34 34 35 35 35 36 36 36 36 36 37 37 38 38 38 38 38 38 38
31 30 29 29 31 36 38 37 36 36 35 35 33 32 32 33 35 36 36 36 37 37 37 36 35 35 37 40 41 40 37 35 34 35 35 35 35 36 36 36 36 35 35 35 35 35 34 34 34 35 35 35 36 36 36 36 36 36 36 36 37 37 38 38 38 37 37 37 38 38 39 39 39 39 39 39 39 40 40 40 40 40 41 40 41
28 29 28 25 25 29 34 34 33 33 34 34 34 33 33 35 37 38 38 37 38 37 36 36 36 39 41 42 40 38 36 35 35 35 36 36 37 37 37 37 37 37 37 37 37 36 36 36 36 36 37 37 38 38 38 38 38 38 38 38 38 39 40 40 40 40 40 40 40 41 42 42 42 42 43 43 43 43 43 43 43 43 43 43 43
29 29 26 22 20 22 25 27 28 29 30 31 33 34 35 35 37 38 37 36 36 36 36 36 39 41 41 39 37 35 35 35 36 36 37 37 38 38 38 38 38 38 38 39 39 38 38 37 37 38 38 39 39 40 40 40 40 40 40 40 40 41 42 42 42 43 43 43 43 43 44 44 45 46 46 46 47 47 46 46 46 46 46 47 47
33 29 23 20 19 19 19 21 23 24 26 28 31 33 34 35 36 36 36 35 36 36 37 39 40 40 39 37 35 35 35 35 36 37 37 38 39 39 39 39 39 40 40 40 40 40 40 39 39 39 40 40 41 41 42 42 42 42 42 42 43 43 44 44 44 44 45 45 45 46 46 46 47 48 48 49 49 49 49 49 49 50 50 50 50
34 27 21 20 19 19 20 22 24 25 27 28 29 31 33 35 36 37 37 37 37 38 39 40 39 38 36 35 34 34 35 35 36 37 38 39 39 40 40 40 41 41 42 42 42 42 42 42 41 41 41 41 42 42 43 43 44 44 44 45 45 46 46 46 46 47 47 48 48 49 49 49 50 50 50 51 51 52 51 51 52 52 53 53 53
Wind_Direction
222 225 222 218 218 224 234 235 232 233 238 242 245 247 251 255 259 263 266 271 275 278 281 284 288 291 295 298 301 303 306 308 309 311 315 318 320 322 322 322 323 325 326 327 327 328 328 328 327 327 327 327 328 329 329 328 327 326 326 325 325 324 324 323 322 321 320 319 317 316 314 312 311 309 307 306 303 301 299 297 294 291 287 283 280
235 234 229 224 224 227 231 232 230 232 238 243 246 248 251 254 257 260 265 269 273 276 280 284 288 293 297 300 303 305 308 309 310 312 315 317 318 320 321 322 322 323 324 326 327 327 327 327 326 326 327 328 329 329 329 328 327 327 327 327 326 326 325 324 323 322 321 320 318 317 315 312 310 309 307 305 303 300 297 295 293 291 288 284 280
237 232 226 222 224 227 228 229 228 232 239 243 246 248 250 252 256 261 265 268 272 277 282 286 290 295 299 302 305 308 310 311 312 313 314 314 316 318 320 320 320 321 322 324 325 326 326 326 326 326 327 329 329 329 329 328 328 328 327 327 326 325 324 323 323 322 321 320 318 316 315 313 311 309 307 305 303 301 298 295 292 289 287 285 282
226 220 217 215 218 222 224 226 228 233 237 240 242 245 249 254 259 263 265 269 274 279 284 289 293 297 300 304 307 311 313 313 313 312 311 312 313 316 319 318 318 319 321 322 324 324 325 325 326 327 328 329 330 330 329 329 328 328 327 326 325 324 324 323 322 321 320 319 318 317 315 314 312 310 307 304 302 300 297 295 291 288 285 283 281
216 213 212 212 215 218 221 225 228 232 236 238 242 247 253 259 261 263 267 272 276 282 288 292 296 299 302 306 310 313 315 314 312 310 308 309 312 315 316 317 317 318 319 321 322 324 325 326 327 328 329 330 330 329 329 328 328 327 326 326 325 325 324 323 322 321 320 319 319 318 317 315 314 313 311 309 305 302 299 295 292 288 285 282 279
210 209 209 210 213 216 221 225 228 233 237 241 246 252 257 260 262 266 271 275 279 286 291 295 297 301 304 308 312 314 314 313 312 310 308 309 310 312 314 315 316 317 318 320 322 324 325 326 328 328 329 329 329 328 328 328 328 328 328 328 327 327 326 324 323 322 321 319 318 317 317 316 315 314 313 311 308 305 302 298 294 290 286 282 279
201 202 204 206 208 213 219 223 228 234 240 244 249 255 259 261 265 269 274 279 285 290 293 295 298 302 306 309 312 313 312 311 311 312 312 311 310 310 311 313 314 316 318 320 322 324 326 327 328 328 328 328 328 328 328 329 330 330 331 330 329 329 328 327 325 324 322 321 319 318 317 316 315 314 312 310 307 304 301 299 296 293 289 285 281
194 198 202 205 210 216 221 225 230 236 243 249 254 258 260 264 268 273 278 284 288 290 292 296 299 303 306 309 311 311 310 310 311 315 316 314 311 310 309 310 313 315 318 321 324 326 327 327 327 327 327 328 328 329 329 331 332 333 332 332 331 330 329 328 327 326 324 323 322 320 319 318 318 317 316 314 312 308 305 302 299 295 292 289 286
194 200 205 211 218 224 228 232 237 241 248 252 255 258 262 266 270 275 281 285 287 289 292 296 300 303 306 309 311 311 311 311 313 317 317 315 312 310 309 311 314 316 319 324 326 327 327 327 327 327 327 328 329 330 331 333 334 334 333 332 332 331 330 328 327 326 326 325 324 322 321 319 318 316 314 312 309 307 303 300 298 295 291 287 286
199 204 212 220 227 233 239 243 246 249 251 253 256 260 263 266 270 276 282 285 287 290 293 296 299 303 306 309 311 311 311 312 315 317 316 313 311 309 311 313 315 318 322 325 326 326 327 326 326 327 327 328 329 331 333 334 334 334 334 333 332 331 329 328 327 326 325 324 323 322 320 318 315 313 311 308 305 303 302 300 299 298 295 291 287
206 211 219 228 237 244 249 253 256 257 257 258 260 262 264 268 275 279 282 285 287 290 294 296 299 303 306 309 310 310 310 312 315 316 314 311 309 309 312 314 316 320 324 325 325 326 326 326 326 326 326 328 330 332 334 334 334 334 334 333 332 331 329 328 327 326 325 324 323 321 319 317 315 314 313 312 309 307 304 302 300 299 298 296 294
212 218 225 231 238 246 250 255 259 261 263 263 261 261 264 269 275 279 282 286 289 293 297 299 302 304 306 308 308 308 310 313 315 314 311 308 308 309 312 314 317 322 324 325 325 325 325 325 325 325 326 328 331 333 334 335 335 335 335 334 332 331 329 328 327 327 326 325 323 321 319 318 317 317 317 316 314 312 309 306 303 301 299 298 296
217 222 226 231 238 246 251 256 259 261 263 262 258 257 261 267 272 278 284 289 293 297 300 301 303 305 306 307 307 307 309 311 312 310 308 307 307 309 312 315 318 322 324 324 324 324 324 324 324 324 326 329 332 334 335 336 336 335 335 334 332 331 329 328 328 328 327 325 324 322 321 320 320 320 319 318 317 316 315 313 310 306 302 297 293
221 225 228 233 240 248 254 258 259 258 257 258 256 255 258 264 271 279 286 292 296 298 300 301 302 304 305 306 305 305 307 308 307 306 305 304 306 309 313 316 319 322 322 322 322 322 323 323 322 324 327 330 332 334 336 336 336 336 335 333 332 331 330 329 328 328 327 326 326 325 324 324 324 323 322 321 320 319 318 317 314 311 307 301 294
224 227 230 235 243 251 258 261 260 256 253 253 254 256 260 267 273 281 287 293 296 297 299 300 302 304 305 305 303 304 305 305 304 302 301 302 306 311 314 316 319 321 321 321 321 321 321 321 322 324 327 330 333 335 336 337 337 336 334 333 332 331 331 329 328 328 328 327 328 329 328 327 326 326 326 325 325 325 324 323 323 324 325 323 318
226 227 230 237 245 252 259 261 261 258 254 254 257 261 266 270 276 283 289 292 295 297 299 301 303 304 304 302 300 301 302 302 300 297 297 301 307 312 314 316 319 320 320 320 320 320 320 320 322 325 327 330 333 335 336 337 336 335 334 333 332 331 330 329 328 328 329 330 331 331 330 330 329 330 331 332 333 334 335 337 338 338 336 334 331
229 229 232 238 244 250 256 260 262 263 262 262 264 266 269 273 279 285 289 292 295 298 300 302 304 304 302 299 297 297 298 297 296 294 295 301 309 313 314 316 318 318 318 319 318 318 318 320 322 324 327 330 332 334 336 337 336 335 334 333 332 331 330 329 329 330 331 332 333 333 332 331 332 333 336 338 340 342 344 345 343 339 335 334 332
232 233 236 239 244 250 255 257 261 267 269 269 269 270 272 277 282 287 291 294 297 300 302 303 303 302 298 295 294 295 294 293 292 292 294 302 309 312 313 314 316 316 316 316 316 316 317 319 322 324 327 329 332 334 336 336 335 335 334 333 332 331 330 330 331 332 333 334 334 334 334 334 335 336 338 340 342 344 345 343 340 338 338 336 334
231 233 238 241 245 251 256 259 264 269 272 273 273 274 277 281 286 290 293 296 298 300 301 302 301 298 295 293 294 294 291 290 291 291 294 302 308 310 311 312 313 313 314 314 315 315 317 319 321 324 326 329 332 334 335 335 335 335 334 333 332 332 332 333 334 335 336 335 335 334 335 337 338 338 340 342 343 344 343 341 340 340 341 340 339
230 231 236 240 243 249 257 263 267 271 273 275 277 278 281 285 288 292 295 297 299 300 300 300 299 297 295 294 293 291 289 288 290 291 295 302 307 308 308 310 310 311 313 314 314 315 315 318 321 323 325 329 332 333 335 336 336 335 334 333 333 333 334 335 337 338 337 336 336 336 337 339 341 343 343 343 344 343 342 341 341 342 343 344 344
236 236 240 242 244 251 259 264 268 271 274 276 278 279 283 286 290 294 296 298 299 299 299 299 298 297 296 295 290 287 287 289 290 291 296 301 305 305 306 308 309 310 312 314 314 314 315 318 321 323 325 329 331 333 335 336 336 335 334 334 334 335 337 338 339 339 338 337 338 339 340 341 344 346 345 344 343 342 341 342 345 346 347 348 348
243 244 245 248 251 256 261 264 268 271 274 276 277 280 283 288 292 295 296 298 299 298 298 297 297 297 296 292 286 285 289 291 291 293 297 300 302 303 305 306 307 310 312 313 313 313 315 318 320 322 325 328 330 333 336 337 336 334 334 335 336 339 340 341 340 340 340 341 343 344 344 345 346 346 346 345 343 342 343 346 349 350 351 352 352
246 247 249 252 256 258 261 264 268 272 274 275 277 281 285 289 293 294 296 298 299 297 296 295 295 294 291 284 282 289 294 294 293 294 296 298 300 302 303 305 307 309 311 312 312 313 315 317 320 322 325 327 330 334 336 336 335 335 335 337 340 342 343 342 342 342 344 346 347 348 349 348 347 347 346 345 344 344 346 350 353 354 355 356 356
244 247 249 251 252 254 259 265 269 272 274 275 278 282 287 290 292 294 297 298 298 296 295 294 292 289 283 276 278 290 296 295 294 294 294 295 297 300 301 303 306 309 311 311 312 312 315 317 320 322 324 327 330 334 336 336 335 335 337 339 342 344 344 344 344 345 348 350 351 352 352 351 350 348 347 347 347 348 351 354 357 358 359 359 359
245 246 246 246 248 254 262 268 271 273 274 276 279 283 287 290 292 294 297 297 296 295 294 292 290 285 278 273 277 287 294 294 293 291 291 293 296 298 299 302 306 309 310 310 311 313 315 317 319 321 323 327 331 334 336 336 335 336 339 342 343 344 345 345 347 349 350 352 354 355 354 353 352 351 350 350 351 352 354 356 358 0 2 2 1
244 243 242 243 251 261 268 271 273 274 274 277 281 284 287 289 291 294 297 297 295 294 292 291 288 282 275 272 276 284 291 291 288 286 289 292 294 295 298 302 306 308 309 310 311 313 315 316 317 320 323 327 331 334 336 336 336 337 339 342 344 345 346 347 349 351 351 352 354 355 354 354 354 354 354 355 355 355 356 356 358 0 2 3 4
239 235 239 246 256 264 268 271 272 273 275 278 280 283 286 288 291 294 296 295 293 292 290 288 284 277 271 269 273 281 286 285 283 284 288 290 291 294 298 302 305 308 309 311 312 312 313 314 316 320 323 326 331 335 336 335 335 336 340 342 344 345 347 349 350 350 351 352 353 353 352 353 354 356 357 357 357 357 357 357 358 359 1 3 6
243 243 249 256 260 263 266 269 270 271 273 276 279 282 285 288 291 294 295 293 290 289 286 282 275 270 268 269 273 279 280 278 280 285 288 288 290 294 299 302 306 308 309 310 310 311 311 313 316 319 322 326 331 335 335 334 333 336 339 341 344 346 348 349 350 350 351 352 352 351 352 354 355 356 357 358 358 358 357 358 359 360 360 2 6
253 256 259 260 261 262 264 265 267 269 271 274 278 281 285 288 292 294 293 290 287 284 280 275 269 266 267 270 274 274 272 274 281 285 286 287 291 295 300 303 306 307 307 307 308 309 310 311 314 318 322 326 331 334 333 331 332 334 337 339 342 346 347 348 349 350 351 352 352 352 354 356 356 357 358 358 358 358 357 358 360 1 1 2 4
258 260 260 259 259 259 261 262 265 267 271 274 278 282 285 289 292 293 291 287 284 280 276 270 265 265 267 268 267 266 267 274 282 284 284 287 292 296 300 303 304 304 304 305 306 306 307 310 314 318 321 325 329 331 330 329 329 331 334 337 340 343 345 347 348 349 350 352 353 354 355 357 357 358 359 359 359 359 358 358 359 2 3 3 4
257 257 257 257 257 258 259 261 264 267 271 275 278 282 286 289 291 290 288 285 282 277 273 267 263 264 265 261 258 260 267 276 281 283 284 288 292 297 300 300 300 301 301 302 303 304 306 309 313 316 319 323 327 328 327 326 326 328 331 334 338 342 344 346 347 348 350 351 352 353 355 357 358 358 358 358 359 359 359 358 360 3 4 5 6
258 256 255 255 256 258 259 262 264 267 271 275 278 282 286 288 288 286 285 284 280 274 269 264 262 262 262 257 255 260 270 278 280 281 284 288 293 296 297 296 297 298 299 300 301 303 305 309 311 313 316 320 324 325 323 322 322 324 327 331 335 339 342 344 345 346 348 349 351 352 354 356 357 357 357 358 358 359 360 359 0 2 4 5 7
256 254 253 254 255 256 258 260 263 267 270 274 278 282 285 286 285 282 280 280 279 273 267 263 262 260 258 255 256 263 272 277 279 281 285 289 292 293 292 293 294 295 297 298 300 301 304 306 307 309 313 317 320 321 319 318 318 320 323 327 331 335 338 340 342 343 345 346 348 349 351 353 354 355 356 357 358 359 359 360 360 1 2 3 5
256 253 251 251 252 254 256 259 262 266 269 273 277 281 284 285 282 279 276 276 276 273 267 265 262 256 251 252 258 266 273 275 277 281 285 288 289 289 289 290 292 293 295 297 298 299 301 303 304 306 310 314 317 317 315 314 313 315 318 322 326 330 333 336 338 339 341 343 344 346 347 349 351 352 353 355 357 358 359 359 360 0 1 1 1
258 256 253 252 252 253 255 258 262 265 268 272 277 281 283 282 278 275 273 274 274 271 267 264 261 256 254 257 262 267 270 273 276 281 284 285 286 286 287 289 290 292 293 294 295 296 298 299 301 303 307 311 312 312 310 309 309 310 313 317 321 324 327 331 333 335 337 339 341 342 343 344 346 348 349 351 353 355 357 358 358 359 360 0 360
256 256 256 255 254 254 255 258 261 264 268 272 277 281 282 279 275 272 272 272 271 268 264 262 260 259 260 262 264 266 269 273 277 280 282 283 284 285 287 288 289 290 291 291 292 293 295 296 298 300 303 307 308 307 306 304 304 306 308 311 315 318 321 324 327 330 333 336 337 338 339 340 341 342 344 346 348 350 352 354 355 356 357 358 359
256 255 255 255 255 255 257 259 261 265 269 274 277 279 279 276 272 270 270 270 268 265 263 262 262 262 262 262 263 266 269 272 276 279 280 282 284 285 286 286 287 288 288 288 289 290 292 293 295 296 299 302 303 302 301 300 300 301 303 306 308 311 314 318 322 326 329 332 334 335 336 337 337 337 338 340 341 343 345 347 349 350 352 353 355
257 255 253 253 253 255 257 259 262 266 270 273 275 276 275 273 270 268 268 267 266 264 263 263 263 263 262 263 264 266 269 272 275 278 280 282 283 283 284 285 285 285 286 286 287 288 289 291 292 293 295 297 297 297 295 295 296 297 298 300 303 305 308 312 316 320 325 327 330 331 332 333 333 334 334 334 335 336 338 340 341 344 345 346 348
255 254 253 252 253 254 256 259 262 265 268 271 271 271 271 270 267 266 265 264 264 263 262 262 263 263 264 264 266 267 270 272 275 278 280 281 281 282 282 282 283 283 284 284 285 286 287 288 289 290 292 293 293 292 291 291 292 293 294 295 297 299 302 306 310 314 318 322 324 326 328 329 330 330 330 330 330 331 332 333 335 336 338 340 341
252 253 252 252 252 254 256 258 260 263 265 266 267 267 268 267 264 263 263 262 262 262 261 262 262 264 265 266 267 269 270 273 275 277 279 279 279 280 280 280 281 281 282 282 283 284 285 286 287 288 289 289 288 287 287 287 288 289 290 291 292 294 296 300 304 308 312 315 318 320 322 324 325 326 326 326 326 327 327 328 330 331 332 334 335
252 252 251 252 252 254 255 257 258 259 260 262 263 263 264 264 262 260 260 261 261 261 261 261 262 264 266 267 269 270 271 272 273 275 277 278 278 278 279 279 279 280 280 281 282 283 284 285 285 286 286 286 285 284 284 284 284 285 286 287 288 289 291 294 298 302 306 309 312 314 316 318 320 321 322 323 323 324 324 325 326 327 328 329 330
253 253 252 251 252 253 254 254 254 254 255 257 259 260 261 261 260 259 259 259 260 260 260 260 261 264 267 268 269 269 270 270 272 274 275 276 276 277 277 278 278 278 279 280 280 281 282 283 284 284 283 282 282 280 280 280 281 282 282 283 284 286 288 291 294 297 300 303 306 308 311 313 314 316 318 319 320 320 321 322 322 323 324 325 326
257 256 254 252 250 249 249 250 249 249 250 252 254 257 259 259 259 258 258 259 259 259 259 260 261 263 266 269 269 269 269 269 271 272 273 274 275 276 276 276 277 277 277 278 278 279 280 281 281 281 281 280 279 277 276 276 277 278 279 280 281 283 285 287 290 292 295 298 301 303 306 308 310 311 313 315 316 317 318 319 319 320 320 321 322
257 257 256 253 248 243 242 244 245 244 246 248 252 256 257 257 256 258 258 259 259 259 259 259 261 263 267 269 269 268 268 268 269 270 272 273 274 274 274 275 275 275 275 276 276 277 278 279 279 279 279 278 277 275 274 273 274 275 276 277 278 280 282 284 286 289 292 294 296 299 301 303 305 307 309 311 312 313 314 315 316 316 317 317 318
255 258 257 251 243 236 235 237 238 239 243 247 251 255 256 254 253 255 257 259 260 260 260 260 261 263 267 270 269 267 266 266 267 269 270 271 272 273 273 273 273 273 273 274 274 275 276 277 277 277 277 276 275 274 273 272 272 272 273 274 275 277 279 281 284 287 289 291 293 295 297 299 301 303 305 307 308 309 310 311 312 313 313 313 314
259 265 262 252 242 236 234 236 237 239 243 248 252 255 256 254 252 254 256 258 259 259 259 260 261 264 267 270 269 266 263 264 265 267 269 270 271 272 272 271 271 271 271 272 273 273 274 275 275 275 275 274 273 272 272 271 271 272 273 274 275 276 277 279 281 284 286 288 290 292 294 296 298 300 302 303 305 306 306 307 308 309 310 310 310
259 266 268 265 255 244 239 240 242 245 248 252 254 255 255 253 251 252 254 255 256 257 259 261 263 266 267 267 265 262 261 262 265 267 269 271 271 271 271 271 270 271 271 271 272 272 272 273 274 274 274 273 273 272 271 271 271 272 273 274 275 276 278 279 281 283 284 286 288 290 292 293 295 297 299 300 301 302 303 304 305 306 307 307 308
256 257 260 264 261 250 243 244 249 254 257 259 259 258 255 250 248 249 252 253 255 258 261 263 264 264 263 262 260 260 261 263 265 267 269 270 270 270 270 270 270 271 271 271 271 271 271 272 272 273 273 273 272 272 272 272 272 273 274 275 276 276 277 279 280 282 284 285 287 289 290 292 294 295 296 297 298 299 300 301 302 303 304 305 305
250 248 248 252 255 252 248 248 252 257 262 265 264 260 253 247 245 247 250 253 255 257 260 261 261 261 260 259 259 260 263 265 267 268 269 270 269 269 269 270 270 271 271 271 270 271 271 271 271 272 272 272 273 273 273 274 274 275 275 276 276 276 277 278 279 281 283 284 286 287 289 291 292 293 294 296 297 298 299 300 301 301 302 303 304
242 243 247 252 254 252 250 250 254 259 265 268 266 260 251 245 246 249 252 254 256 258 259 261 261 260 259 259 260 262 265 267 268 269 269 268 268 268 269 270 270 270 270 270 270 271 271 271 271 271 271 272 273 273 274 275 275 276 276 277 277 277 278 279 280 281 282 284 285 286 288 289 290 291 293 294 296 297 298 299 299 300 301 302 303
238 241 249 253 251 248 249 251 254 257 261 264 264 259 250 246 249 253 255 255 256 257 258 258 259 258 258 259 261 264 266 267 269 269 269 268 268 268 269 270 270 271 271 271 271 271 271 271 271 271 272 272 272 273 273 274 275 276 277 278 278 279 280 280 281 282 283 284 285 286 287 288 289 290 292 293 294 295 296 297 297 298 299 300 301
Height
5797 5798 5798 5799 5800 5801 5802 5803 5804 5805 5806 5807 5808 5808 5809 5810 5811 5811 5810 5810 5810 5809 5808 5807 5806 5805 5804 5802 5801 5800 5798 5797 5795 5792 5791 5789 5787 5785 5783 5781 5780 5778 5776 5774 5772 5770 5768 5766 5763 5761 5758 5755 5753 5750 5748 5745 5743 5741 5738 5736 5733 5731 5728 5726 5724 5722 5720 5718 5716 5714 5713 5711 5709 5707 5705 5704 5702 5700 5699 5697 5695 5694 5693 5692 5691
5796 5796 5797 5798 5799 5800 5801 5802 5802 5803 5804 5805 5806 5807 5808 5808 5809 5809 5808 5808 5808 5807 5806 5806 5804 5803 5801 5800 5799 5798 5796 5795 5792 5790 5788 5786 5784 5783 5781 5779 5777 5775 5774 5772 5770 5768 5766 5764 5761 5759 5756 5753 5751 5748 5746 5743 5741 5738 5736 5733 5730 5728 5725 5723 5721 5718 5716 5714 5713 5711 5709 5707 5705 5704 5702 5700 5698 5696 5695 5694 5692 5690 5689 5688 5687
5794 5794 5795 5796 5797 5798 5799 5800 5801 5802 5802 5803 5804 5805 5806 5807 5807 5807 5806 5806 5806 5805 5804 5803 5802 5801 5799 5798 5796 5795 5794 5792 5790 5787 5786 5784 5782 5781 5778 5776 5775 5773 5771 5769 5768 5766 5764 5761 5759 5756 5753 5751 5748 5746 5743 5741 5738 5736 5733 5731 5728 5725 5723 5720 5718 5715 5713 5711 5709 5707 5705 5703 5701 5699 5698 5696 5694 5691 5690 5689 5688 5686 5684 5683 5683
5792 5792 5793 5794 5795 5796 5797 5798 5799 5800 5800 5801 5802 5803 5804 5805 5805 5805 5804 5804 5804 5803 5802 5801 5800 5798 5797 5795 5794 5793 5791 5789 5787 5785 5783 5781 5780 5778 5776 5774 5772 5771 5769 5767 5765 5763 5761 5759 5756 5754 5751 5749 5746 5744 5741 5739 5736 5734 5731 5728 5726 5723 5720 5718 5715 5713 5711 5708 5706 5704 5702 5700 5698 5695 5693 5691 5689 5688 5686 5684 5682 5681 5680 5679 5678
5790 5791 5791 5792 5793 5794 5795 5797 5798 5798 5798 5799 5800 5801 5803 5803 5803 5802 5802 5802 5801 5801 5800 5799 5797 5796 5794 5793 5791 5790 5788 5786 5784 5783 5781 5779 5777 5775 5774 5772 5770 5768 5766 5765 5763 5761 5759 5756 5754 5751 5749 5746 5744 5742 5739 5737 5734 5731 5729 5726 5723 5721 5718 5715 5713 5710 5708 5705 5702 5700 5698 5695 5693 5691 5688 5686 5683 5682 5681 5679 5677 5675 5674 5674 5673
5788 5789 5789 5790 5791 5792 5794 5795 5796 5796 5796 5798 5799 5800 5801 5801 5800 5800 5800 5800 5799 5798 5797 5796 5794 5793 5792 5790 5789 5787 5786 5784 5782 5780 5778 5776 5774 5773 5771 5769 5768 5766 5764 5762 5760 5758 5756 5754 5752 5749 5747 5744 5742 5740 5737 5734 5732 5729 5726 5723 5721 5718 5715 5712 5709 5707 5704 5701 5699 5696 5693 5691 5689 5686 5684 5682 5679 5677 5675 5674 5672 5670 5669 5668 5667
5786 5787 5787 5788 5790 5791 5792 5793 5793 5794 5795 5796 5797 5798 5799 5798 5798 5798 5798 5797 5797 5796 5794 5793 5792 5790 5789 5788 5786 5785 5783 5781 5779 5777 5775 5773 5772 5770 5768 5767 5765 5763 5762 5760 5758 5756 5754 5751 5749 5747 5745 5742 5740 5738 5735 5732 5729 5726 5723 5721 5718 5715 5712 5709 5706 5703 5700 5698 5695 5692 5689 5687 5685 5682 5680 5678 5676 5674 5671 5669 5667 5665 5664 5662 5661
5784 5785 5786 5787 5788 5789 5790 5790 5791 5792 5793 5794 5795 5796 5796 5796 5796 5796 5795 5795 5794 5793 5791 5790 5789 5787 5786 5785 5784 5782 5780 5778 5777 5774 5772 5770 5769 5767 5766 5764 5763 5761 5759 5757 5755 5753 5751 5749 5747 5745 5742 5740 5738 5735 5733 5730 5727 5724 5721 5718 5715 5712 5710 5706 5703 5700 5697 5694 5691 5688 5685 5683 5680 5678 5675 5673 5671 5669 5667 5665 5663 5661 5660 5658 5656
5781 5783 5784 5785 5786 5787 5787 5788 5789 5790 5791 5792 5793 5794 5794 5793 5793 5793 5792 5792 5791 5790 5788 5787 5786 5784 5783 5782 5780 5779 5777 5775 5773 5771 5769 5768 5766 5764 5763 5761 5760 5759 5757 5755 5753 5750 5748 5746 5744 5742 5740 5738 5736 5733 5730 5727 5725 5722 5719 5716 5713 5710 5707 5704 5701 5698 5694 5691 5688 5685 5682 5679 5677 5675 5672 5670 5668 5665 5663 5661 5659 5658 5656 5654 5652
5779 5781 5782 5783 5784 5785 5785 5786 5787 5788 5789 5790 5790 5791 5791 5791 5791 5790 5789 5788 5788 5787 5786 5784 5783 5782 5780 5779 5777 5775 5773 5771 5770 5768 5767 5765 5764 5762 5761 5759 5758 5756 5754 5752 5750 5748 5746 5744 5742 5740 5738 5736 5733 5731 5728 5725 5723 5720 5717 5713 5710 5707 5704 5701 5698 5695 5691 5688 5685 5682 5679 5676 5674 5672 5669 5667 5665 5663 5660 5658 5655 5653 5651 5650 5648
5778 5779 5780 5781 5782 5783 5784 5785 5786 5786 5787 5787 5787 5788 5788 5788 5788 5787 5786 5785 5785 5784 5783 5781 5780 5779 5777 5775 5774 5772 5770 5768 5767 5765 5764 5763 5761 5760 5758 5757 5755 5753 5751 5750 5748 5745 5743 5741 5739 5738 5736 5734 5731 5729 5726 5723 5721 5718 5714 5711 5707 5704 5701 5698 5695 5691 5688 5685 5682 5679 5676 5673 5670 5667 5665 5663 5661 5659 5657 5655 5652 5650 5648 5646 5644
5776 5777 5778 5779 5780 5781 5782 5783 5783 5784 5784 5784 5785 5785 5785 5785 5784 5784 5783 5782 5782 5780 5779 5778 5777 5776 5774 5772 5771 5769 5767 5765 5764 5763 5762 5760 5759 5757 5756 5755 5753 5751 5749 5747 5745 5743 5741 5739 5737 5735 5734 5731 5729 5726 5724 5721 5718 5715 5712 5708 5704 5701 5697 5694 5692 5688 5684 5681 5678 5675 5672 5669 5666 5664 5661 5659 5657 5655 5653 5651 5649 5647 5645 5643 5640
5774 5775 5776 5778 5778 5779 5780 5780 5781 5781 5781 5781 5781 5782 5782 5782 5781 5781 5780 5779 5778 5777 5776 5775 5774 5772 5771 5769 5767 5766 5764 5763 5762 5760 5759 5758 5756 5755 5754 5752 5750 5748 5746 5744 5742 5741 5739 5737 5735 5733 5731 5729 5727 5724 5722 5719 5716 5713 5710 5706 5702 5698 5694 5690 5688 5685 5681 5677 5674 5671 5669 5666 5663 5661 5658 5656 5654 5651 5649 5647 5645 5643 5641 5639 5637
5772 5773 5774 5775 5776 5776 5777 5777 5777 5778 5778 5778 5778 5778 5778 5779 5778 5778 5777 5776 5775 5774 5773 5772 5771 5769 5768 5766 5764 5763 5761 5760 5759 5758 5756 5755 5754 5753 5751 5749 5747 5745 5744 5742 5740 5738 5737 5735 5733 5731 5729 5727 5724 5722 5719 5716 5713 5710 5707 5703 5699 5695 5691 5687 5684 5682 5678 5674 5671 5668 5665 5663 5661 5658 5656 5653 5651 5649 5646 5644 5642 5640 5638 5636 5634
5769 5770 5772 5773 5773 5774 5774 5774 5774 5774 5775 5775 5775 5775 5776 5776 5775 5774 5774 5773 5772 5771 5770 5769 5767 5766 5764 5763 5761 5760 5759 5758 5756 5755 5754 5753 5751 5750 5749 5747 5745 5743 5741 5739 5738 5736 5734 5733 5731 5728 5726 5724 5722 5719 5717 5714 5710 5707 5704 5701 5697 5693 5689 5684 5680 5679 5676 5672 5668 5666 5663 5660 5658 5655 5653 5650 5648 5646 5643 5641 5638 5636 5634 5632 5630
5766 5767 5769 5770 5771 5771 5771 5771 5771 5771 5772 5772 5773 5773 5773 5773 5772 5771 5770 5770 5769 5768 5767 5765 5764 5763 5761 5760 5758 5757 5756 5755 5754 5752 5751 5750 5749 5747 5746 5744 5742 5740 5738 5737 5735 5734 5732 5730 5728 5726 5724 5722 5719 5717 5714 5711 5708 5705 5701 5698 5695 5691 5688 5683 5678 5675 5673 5670 5666 5663 5661 5658 5656 5653 5650 5648 5645 5643 5640 5638 5635 5633 5631 5629 5627
5763 5764 5766 5767 5768 5768 5768 5768 5768 5769 5769 5769 5770 5770 5770 5770 5769 5768 5767 5766 5765 5764 5763 5762 5761 5759 5758 5757 5755 5754 5753 5752 5751 5750 5749 5748 5746 5745 5743 5741 5739 5738 5736 5735 5733 5731 5730 5728 5726 5724 5721 5719 5717 5714 5711 5709 5705 5702 5699 5695 5692 5689 5685 5682 5676 5672 5670 5667 5664 5661 5659 5656 5654 5651 5649 5647 5644 5642 5639 5637 5635 5633 5631 5628 5626
5761 5762 5763 5764 5765 5765 5765 5765 5766 5766 5766 5766 5767 5767 5767 5766 5766 5765 5764 5763 5762 5761 5760 5758 5757 5756 5755 5754 5752 5751 5750 5749 5748 5747 5746 5745 5744 5742 5741 5739 5737 5736 5734 5732 5731 5729 5727 5725 5723 5721 5719 5717 5714 5712 5709 5706 5703 5699 5696 5692 5689 5685 5682 5679 5675 5671 5667 5665 5663 5660 5657 5655 5652 5650 5648 5646 5643 5641 5639 5637 5635 5632 5630 5627 5624
5758 5760 5761 5762 5763 5762 5762 5762 5763 5763 5763 5763 5764 5764 5764 5763 5762 5761 5760 5760 5759 5757 5756 5755 5754 5753 5752 5750 5749 5748 5747 5746 5745 5744 5743 5742 5741 5740 5738 5736 5735 5733 5732 5730 5729 5727 5725 5723 5721 5719 5717 5714 5712 5709 5706 5704 5700 5697 5693 5690 5686 5682 5679 5676 5673 5669 5666 5663 5661 5658 5656 5654 5651 5649 5647 5644 5642 5640 5638 5636 5633 5631 5628 5626 5623
5754 5757 5758 5759 5759 5759 5759 5759 5759 5759 5760 5760 5760 5760 5760 5759 5759 5758 5757 5756 5755 5754 5753 5752 5751 5749 5748 5747 5746 5745 5743 5742 5742 5741 5740 5739 5738 5737 5735 5734 5733 5731 5730 5728 5726 5724 5723 5721 5719 5716 5714 5712 5710 5707 5704 5701 5698 5694 5691 5687 5684 5680 5676 5673 5671 5668 5665 5662 5659 5657 5655 5653 5650 5648 5645 5643 5641 5639 5637 5634 5632 5629 5626 5624 5621
5751 5753 5754 5755 5755 5755 5755 5756 5756 5756 5756 5757 5757 5756 5756 5756 5755 5754 5753 5752 5751 5750 5749 5748 5747 5746 5745 5743 5742 5741 5740 5739 5739 5738 5737 5737 5736 5734 5733 5731 5730 5729 5727 5725 5724 5722 5720 5718 5716 5714 5712 5710 5707 5704 5701 5698 5695 5692 5688 5685 5681 5678 5674 5671 5669 5667 5664 5661 5658 5656 5653 5651 5649 5647 5645 5643 5640 5638 5636 5634 5631 5628 5625 5622 5619
5749 5749 5750 5751 5752 5752 5751 5752 5752 5752 5753 5753 5753 5753 5752 5752 5751 5750 5750 5749 5748 5747 5745 5744 5743 5742 5741 5740 5739 5739 5738 5737 5736 5735 5734 5734 5733 5732 5730 5729 5727 5726 5724 5723 5721 5720 5718 5716 5714 5712 5710 5707 5705 5702 5699 5696 5693 5690 5686 5683 5679 5676 5673 5670 5668 5665 5663 5660 5658 5655 5652 5650 5648 5647 5645 5642 5640 5638 5635 5633 5630 5627 5625 5622 5619
5745 5746 5747 5748 5748 5748 5748 5748 5748 5749 5749 5749 5749 5749 5748 5748 5747 5747 5746 5745 5744 5743 5742 5741 5740 5739 5738 5737 5737 5736 5735 5734 5733 5732 5732 5731 5730 5729 5727 5726 5725 5723 5722 5720 5719 5717 5716 5714 5712 5710 5707 5705 5702 5699 5696 5693 5691 5688 5684 5681 5677 5675 5672 5670 5667 5664 5662 5660 5657 5654 5652 5650 5647 5645 5644 5642 5639 5637 5635 5632 5630 5627 5624 5621 5618
5741 5742 5743 5744 5744 5744 5744 5744 5745 5745 5745 5745 5745 5745 5744 5744 5744 5743 5742 5741 5740 5739 5738 5738 5737 5736 5735 5734 5734 5733 5732 5731 5730 5730 5729 5728 5727 5726 5725 5723 5722 5721 5719 5718 5717 5715 5713 5711 5709 5707 5705 5703 5700 5697 5694 5691 5688 5685 5682 5679 5676 5674 5671 5669 5666 5664 5661 5659 5657 5654 5652 5650 5647 5645 5643 5641 5639 5636 5634 5631 5629 5626 5623 5620 5617
5737 5738 5739 5740 5740 5740 5740 5741 5741 5741 5741 5741 5741 5741 5741 5740 5740 5739 5739 5738 5737 5736 5735 5734 5733 5732 5732 5731 5730 5729 5729 5728 5727 5727 5726 5725 5724 5723 5722 5721 5719 5718 5717 5715 5714 5712 5711 5709 5707 5705 5703 5701 5698 5695 5692 5689 5686 5683 5680 5677 5675 5673 5670 5668 5666 5663 5661 5659 5656 5654 5652 5650 5648 5645 5643 5640 5638 5635 5633 5630 5628 5626 5623 5620 5617
5733 5734 5734 5735 5735 5736 5736 5737 5737 5737 5737 5737 5737 5737 5737 5737 5736 5736 5735 5734 5733 5732 5731 5730 5729 5728 5728 5727 5726 5726 5726 5725 5725 5724 5724 5723 5722 5720 5719 5718 5717 5715 5714 5713 5711 5710 5708 5706 5705 5703 5701 5698 5695 5692 5690 5687 5684 5682 5679 5676 5674 5672 5670 5667 5665 5663 5661 5658 5656 5654 5652 5650 5648 5645 5643 5640 5637 5635 5632 5630 5627 5625 5623 5620 5617
5729 5729 5729 5730 5731 5732 5732 5733 5733 5733 5733 5734 5734 5733 5733 5733 5733 5732 5731 5730 5729 5728 5727 5726 5725 5724 5724 5723 5723 5723 5722 5722 5722 5721 5721 5720 5719 5717 5716 5715 5714 5713 5711 5710 5708 5707 5705 5704 5702 5700 5698 5696 5693 5690 5687 5685 5683 5680 5678 5676 5673 5671 5669 5667 5664 5662 5660 5658 5656 5654 5652 5650 5647 5645 5642 5640 5637 5635 5633 5630 5627 5625 5623 5620 5618
5725 5726 5726 5726 5726 5728 5728 5729 5729 5729 5730 5730 5730 5730 5730 5729 5729 5728 5727 5726 5725 5724 5723 5722 5721 5721 5720 5719 5720 5720 5719 5719 5719 5718 5718 5717 5716 5715 5714 5712 5711 5710 5708 5707 5706 5704 5703 5701 5700 5698 5696 5693 5691 5688 5686 5683 5681 5679 5677 5674 5672 5670 5668 5666 5664 5662 5660 5658 5655 5653 5651 5649 5646 5644 5642 5640 5637 5635 5633 5630 5628 5625 5623 5620 5618
5721 5721 5721 5722 5723 5724 5725 5725 5726 5726 5726 5726 5726 5726 5726 5726 5725 5724 5723 5722 5721 5720 5719 5718 5718 5717 5716 5716 5717 5716 5716 5716 5716 5715 5714 5714 5713 5712 5711 5709 5708 5707 5706 5704 5703 5702 5700 5699 5697 5695 5693 5691 5688 5686 5684 5682 5680 5677 5675 5673 5671 5669 5667 5665 5663 5661 5659 5657 5655 5653 5650 5648 5646 5644 5641 5639 5637 5635 5633 5630 5628 5626 5623 5621 5618
5717 5717 5717 5718 5719 5720 5721 5721 5722 5722 5723 5723 5723 5723 5722 5722 5721 5720 5719 5718 5717 5716 5715 5715 5714 5713 5713 5713 5714 5713 5713 5713 5713 5712 5711 5711 5710 5709 5708 5706 5705 5704 5703 5702 5700 5699 5698 5696 5695 5693 5691 5688 5686 5684 5682 5680 5678 5676 5674 5672 5670 5668 5666 5664 5662 5660 5658 5656 5654 5652 5650 5648 5646 5643 5641 5639 5637 5635 5633 5630 5628 5626 5623 5621 5618
5712 5713 5713 5714 5715 5716 5717 5718 5718 5718 5719 5719 5719 5719 5719 5718 5717 5716 5715 5714 5713 5712 5712 5711 5710 5710 5710 5710 5710 5710 5710 5710 5709 5709 5708 5707 5706 5706 5705 5704 5702 5701 5700 5699 5698 5696 5695 5693 5692 5690 5688 5686 5684 5682 5680 5678 5676 5674 5673 5671 5669 5667 5665 5663 5661 5659 5657 5656 5654 5652 5650 5648 5645 5643 5641 5639 5637 5635 5632 5630 5628 5626 5623 5621 5619
5708 5709 5709 5710 5711 5712 5713 5713 5714 5715 5715 5715 5715 5715 5715 5714 5713 5712 5711 5709 5709 5708 5708 5707 5706 5706 5707 5707 5707 5707 5707 5707 5706 5706 5705 5704 5703 5703 5702 5701 5700 5698 5697 5696 5695 5693 5692 5691 5689 5688 5686 5684 5682 5680 5678 5676 5675 5673 5671 5669 5667 5666 5664 5662 5660 5658 5657 5655 5653 5651 5649 5647 5645 5643 5641 5639 5637 5634 5632 5630 5628 5626 5623 5621 5619
5704 5704 5705 5706 5707 5708 5708 5709 5710 5710 5711 5711 5711 5711 5711 5710 5708 5708 5707 5706 5705 5704 5704 5704 5703 5703 5704 5704 5704 5704 5704 5703 5703 5703 5702 5701 5700 5700 5699 5698 5697 5695 5694 5693 5692 5690 5689 5688 5687 5685 5683 5681 5679 5678 5676 5674 5673 5671 5669 5668 5666 5664 5662 5661 5659 5657 5656 5654 5652 5651 5649 5647 5645 5643 5641 5639 5636 5634 5632 5630 5628 5625 5623 5621 5619
5699 5700 5701 5702 5703 5703 5704 5705 5706 5706 5707 5707 5707 5707 5706 5705 5704 5704 5703 5703 5701 5701 5701 5701 5701 5701 5701 5701 5701 5701 5700 5700 5700 5699 5699 5698 5697 5696 5696 5694 5693 5692 5691 5690 5689 5688 5686 5685 5684 5682 5681 5679 5677 5675 5674 5672 5671 5669 5667 5666 5664 5663 5661 5659 5658 5656 5654 5653 5651 5650 5648 5646 5644 5642 5640 5638 5636 5634 5632 5630 5627 5625 5623 5621 5619
5695 5696 5696 5698 5699 5699 5700 5701 5702 5702 5702 5702 5703 5702 5702 5701 5700 5700 5700 5699 5698 5698 5697 5697 5698 5698 5698 5698 5697 5697 5697 5697 5697 5696 5696 5695 5694 5693 5692 5691 5690 5689 5688 5687 5686 5685 5683 5682 5681 5679 5678 5676 5674 5673 5672 5670 5668 5667 5665 5664 5662 5661 5659 5658 5656 5655 5653 5651 5650 5648 5647 5645 5643 5641 5640 5638 5636 5634 5632 5629 5627 5625 5623 5621 5619
5690 5691 5693 5694 5694 5695 5696 5697 5697 5697 5698 5698 5698 5698 5697 5697 5696 5696 5696 5695 5695 5695 5694 5694 5694 5695 5694 5694 5694 5694 5694 5694 5693 5693 5692 5692 5691 5690 5689 5688 5687 5686 5685 5684 5683 5682 5680 5679 5678 5676 5675 5673 5672 5670 5669 5668 5666 5665 5663 5662 5661 5659 5658 5656 5655 5653 5652 5650 5648 5647 5645 5644 5642 5640 5639 5637 5635 5633 5631 5629 5627 5625 5623 5621 5619
5686 5687 5689 5689 5690 5691 5691 5692 5692 5693 5693 5693 5693 5693 5693 5693 5693 5692 5692 5692 5691 5691 5691 5691 5691 5691 5691 5691 5691 5690 5691 5691 5690 5690 5689 5688 5687 5687 5686 5685 5684 5683 5682 5681 5680 5678 5677 5676 5675 5673 5672 5670 5669 5667 5666 5665 5664 5663 5661 5660 5659 5657 5656 5654 5653 5651 5650 5648 5647 5645 5644 5642 5640 5639 5637 5635 5634 5632 5630 5628 5626 5624 5622 5620 5618
5682 5683 5684 5685 5685 5686 5687 5687 5688 5688 5688 5689 5689 5688 5688 5689 5689 5688 5688 5688 5688 5688 5688 5688 5688 5688 5688 5688 5688 5687 5687 5687 5687 5686 5686 5685 5684 5683 5682 5681 5680 5679 5678 5677 5676 5675 5674 5672 5671 5670 5668 5667 5666 5665 5663 5662 5661 5660 5659 5658 5656 5655 5654 5652 5651 5650 5648 5646 5645 5643 5642 5640 5639 5637 5635 5634 5632 5630 5628 5626 5625 5623 5621 5619 5617
5677 5678 5679 5679 5680 5681 5681 5682 5683 5683 5684 5684 5684 5684 5684 5685 5685 5684 5684 5684 5684 5684 5684 5684 5684 5684 5684 5684 5684 5684 5684 5684 5684 5683 5682 5682 5681 5680 5679 5678 5677 5676 5675 5674 5673 5671 5670 5669 5668 5667 5665 5664 5663 5662 5660 5660 5659 5657 5656 5655 5654 5653 5652 5650 5649 5647 5646 5644 5643 5641 5640 5638 5636 5635 5633 5632 5630 5628 5627 5625 5623 5621 5619 5617 5616
5672 5673 5673 5674 5674 5675 5676 5677 5678 5678 5679 5679 5679 5679 5680 5681 5680 5680 5680 5680 5680 5680 5681 5681 5681 5681 5681 5681 5681 5681 5681 5680 5680 5679 5679 5678 5677 5676 5675 5674 5673 5672 5671 5670 5669 5668 5667 5666 5665 5663 5662 5661 5660 5658 5658 5657 5656 5655 5654 5652 5651 5650 5649 5648 5646 5645 5644 5642 5641 5639 5637 5636 5634 5633 5631 5629 5628 5626 5624 5623 5621 5619 5617 5615 5614
5667 5667 5668 5669 5669 5670 5671 5672 5672 5673 5674 5674 5674 5675 5676 5676 5676 5676 5676 5676 5676 5677 5677 5677 5677 5677 5677 5677 5677 5677 5677 5676 5676 5675 5675 5674 5673 5672 5671 5670 5669 5668 5667 5666 5665 5664 5663 5662 5661 5660 5659 5657 5656 5655 5654 5653 5653 5652 5651 5649 5648 5647 5646 5645 5644 5642 5641 5640 5638 5636 5635 5633 5632 5630 5629 5627 5625 5624 5622 5620 5619 5617 5615 5613 5611
5662 5663 5663 5664 5665 5665 5666 5666 5667 5667 5668 5669 5670 5671 5672 5672 5672 5672 5672 5672 5672 5672 5673 5673 5673 5673 5673 5673 5673 5673 5673 5672 5672 5671 5670 5670 5669 5668 5667 5666 5665 5664 5663 5662 5661 5660 5659 5658 5657 5656 5655 5654 5653 5652 5651 5650 5649 5648 5647 5646 5645 5644 5643 5642 5640 5639 5638 5637 5635 5633 5632 5630 5629 5627 5626 5624 5623 5621 5619 5618 5616 5614 5612 5611 5609
5656 5657 5658 5659 5660 5660 5660 5660 5661 5661 5663 5664 5665 5666 5667 5667 5667 5667 5667 5668 5668 5668 5669 5669 5669 5669 5669 5669 5669 5669 5668 5668 5667 5666 5666 5665 5664 5664 5663 5662 5661 5660 5659 5658 5657 5656 5655 5654 5653 5652 5651 5650 5649 5648 5647 5646 5646 5645 5644 5643 5642 5640 5639 5638 5637 5635 5634 5633 5632 5630 5629 5627 5626 5624 5623 5621 5619 5618 5616 5615 5613 5611 5609 5608 5606
5651 5651 5652 5653 5653 5653 5654 5654 5655 5656 5657 5658 5660 5661 5662 5662 5662 5663 5663 5663 5663 5664 5664 5665 5665 5665 5665 5664 5664 5664 5664 5663 5662 5662 5661 5661 5660 5659 5658 5657 5656 5655 5654 5653 5652 5652 5651 5650 5649 5648 5647 5646 5645 5644 5643 5643 5642 5641 5640 5639 5638 5637 5635 5634 5633 5632 5631 5629 5628 5627 5625 5624 5622 5621 5619 5617 5616 5614 5613 5611 5609 5608 5606 5604 5602
5645 5646 5647 5647 5646 5646 5646 5647 5649 5650 5652 5653 5654 5656 5656 5657 5657 5657 5658 5658 5659 5659 5659 5660 5660 5660 5660 5660 5660 5659 5658 5658 5657 5657 5656 5656 5655 5654 5653 5652 5651 5650 5650 5649 5648 5647 5646 5645 5644 5643 5642 5642 5641 5640 5639 5638 5638 5637 5636 5635 5634 5633 5631 5630 5629 5628 5626 5625 5624 5623 5621 5620 5618 5617 5615 5614 5612 5610 5609 5607 5605 5604 5602 5600 5598
5640 5640 5641 5642 5642 5642 5643 5643 5643 5645 5647 5648 5649 5650 5651 5651 5652 5652 5652 5653 5654 5654 5654 5655 5655 5655 5655 5655 5654 5654 5653 5653 5652 5652 5651 5651 5650 5649 5648 5647 5647 5646 5645 5644 5643 5642 5641 5640 5640 5639 5638 5637 5636 5635 5635 5634 5633 5632 5631 5630 5630 5628 5627 5626 5625 5624 5622 5621 5619 5618 5617 5615 5614 5612 5611 5609 5608 5606 5604 5602 5601 5599 5597 5596 5594
5635 5636 5636 5637 5638 5639 5639 5639 5640 5641 5642 5643 5644 5645 5646 5646 5646 5647 5647 5648 5649 5649 5649 5650 5650 5650 5650 5649 5649 5648 5648 5648 5647 5647 5646 5646 5645 5644 5643 5642 5642 5641 5640 5639 5638 5637 5636 5635 5634 5634 5633 5632 5631 5631 5630 5629 5628 5627 5627 5626 5625 5624 5622 5621 5620 5619 5618 5616 5615 5613 5612 5610 5609 5608 5606 5605 5603 5601 5600 5598 5596 5594 5592 5591 5589
5631 5632 5632 5632 5633 5634 5635 5636 5637 5638 5638 5639 5640 5640 5641 5641 5642 5642 5642 5643 5644 5644 5645 5645 5645 5644 5644 5644 5643 5643 5642 5642 5642 5642 5641 5641 5640 5639 5638 5637 5636 5635 5634 5634 5633 5632 5631 5630 5629 5628 5627 5626 5626 5625 5625 5624 5623 5623 5622 5621 5620 5619 5618 5616 5615 5614 5612 5611 5609 5608 5606 5605 5603 5602 5600 5599 5598 5596 5594 5593 5591 5589 5587 5585 5583
5627 5628 5628 5628 5628 5629 5631 5632 5633 5634 5634 5634 5635 5635 5636 5636 5637 5637 5637 5638 5638 5639 5640 5640 5640 5639 5639 5638 5638 5638 5638 5637 5637 5636 5636 5635 5635 5634 5633 5632 5631 5630 5629 5628 5627 5626 5625 5625 5624 5623 5622 5621 5620 5620 5619 5619 5618 5618 5617 5616 5615 5614 5613 5611 5610 5608 5607 5605 5604 5602 5601 5599 5598 5596 5594 5593 5591 5589 5588 5586 5584 5582 5580 5579 5577
5622 5623 5623 5623 5624 5625 5626 5627 5628 5629 5630 5630 5630 5631 5632 5632 5632 5633 5633 5633 5633 5634 5634 5634 5634 5634 5634 5633 5633 5633 5633 5632 5632 5631 5631 5630 5629 5628 5627 5626 5625 5624 5623 5622 5621 5621 5620 5619 5618 5617 5616 5616 5615 5614 5614 5613 5612 5612 5611 5610 5609 5608 5607 5606 5604 5603 5601 5599 5598 5596 5595 5594 5592 5590 5589 5587 5585 5583 5581 5580 5577 5575 5574 5572 5570
5617 5618 5618 5619 5620 5621 5622 5623 5624 5625 5625 5626 5626 5627 5628 5628 5628 5628 5628 5628 5628 5629 5629 5629 5629 5628 5628 5628 5628 5628 5628 5627 5626 5626 5625 5624 5623 5622 5621 5620 5619 5619 5618 5617 5616 5615 5614 5613 5613 5612 5611 5610 5610 5609 5608 5607 5606 5605 5604 5603 5602 5601 5600 5599 5598 5596 5594 5593 5591 5589 5588 5587 5585 5584 5583 5581 5579 5577 5575 5573 5571 5569 5567 5565 5563